Terminal Aerodrome Forecast
Issued by NWS Denver/Boulder, CO

Home | Current Version | Previous Version | Text Only | Print | Product List | Glossary On
Versions: 1 2 3 4 5 6 7 8 9 10 11 12 13 14 15 16 17 18 19 20 21 22 23 24 25 26 27 28 29 30 31 32 33 34 35 36 37 38 39 40 41 42 43 44 45 46 47 48 49 50
000
FTUS45 KBOU 260220 AAB
TAFDEN
TAF AMD
KDEN 260220Z 2602/2706 22015G23KT P6SM SCT080 BKN110
     FM260400 22012KT P6SM FEW120 BKN220
     FM261500 03010KT P6SM FEW100 SCT220
     FM262000 06009KT P6SM SCT090 BKN150 PROB30 2621/2702 VRB20G35KT
      -TSRA BKN070CB
     FM270200 15010KT P6SM SCT080 BKN120=

USA.gov is the U.S. government's official web portal to all federal, state and local government web resources and services.